Location: Dehesa de la Cepeda
(40.6574°N, 4.3013°W)
Time: 10:26:45
(UTC+00:00)

Transit 2A Rocket - Pass Details

Date: 12 August 2021
Orbit: 586 x 917 km, 66.7° (Epoch: 24 September)

Event Time Altitude Azimuth Distance (km) Brightness Sun altitude
Rises 12:48:37 0° 250° (WSW) 2,887 8.2 63.5°
Reaches altitude 10° 12:51:21 10° 268° (W) 2,028 7.5 63.4°
Maximum altitude 12:54:42 20° 315° (NW) 1,544 6.7 63.2°
Drops below altitude 10° 12:58:17 10° 2° (N) 2,174 7.2 63.0°
Sets 13:01:21 0° 20° (NNE) 3,167 7.9 62.8°
